This demonstration page uses our WeatherBlox Daily Observations layout. Learn more.

Left ArrowRight Arrow

40.92945, -100.16068

Hourly Observations for September 3, 2017

Temp ( °F °C ) Dew Point ( °F °C ) Humidity (%) Winds ( mph kmh ) Pressure ( in mb ) Visibility ( mi km ) Precip ( " mm )
12:15 am 00:15 Clear 63 17 58 14.6 86 86 Calm 30.06 1018 7 11 0.00 0.00
12:35 am 00:35 Hazy 63 17.2 58 14.4 84 84 SSE 3 6 30.06 1018 4 6 0.00 0.00
12:55 am 00:55 Clear 64 17.9 58 14.5 81 81 SE 3 6 30.03 1017 7 11 0.00 0.00
1:15 am 01:15 Clear 64 17.5 58 14.2 81 81 SE 3 6 30.03 1017 7 11 0.00 0.00
1:35 am 01:35 Hazy 64 17.6 58 14.2 81 81 SE 3 6 30.03 1017 5 8 0.00 0.00
1:55 am 01:55 Hazy 62 16.4 57 13.8 85 85 Calm 30.06 1018 5 8 0.00 0.00
2:15 am 02:15 Clear 59 14.9 56 13.5 91 91 SSE 3 6 30.06 1018 7 11 0.00 0.00
2:35 am 02:35 Clear with Mist and Fog 59 14.9 56 13.6 92 92 SE 5 7 30.03 1017 5 8 0.00 0.00
2:55 am 02:55 Clear with Mist and Fog 62 16.6 57 14.1 85 85 SSE 8 13 30.03 1017 5 8 0.00 0.00
3:15 am 03:15 Clear 61 16.2 57 14 87 87 Calm 30.03 1017 7 11 0.00 0.00
3:35 am 03:35 Clear 63 17.2 58 14.5 84 84 Calm 30.00 1016 10 16 0.00 0.00
3:55 am 03:55 Clear 57 14 55 12.7 92 92 Calm 30.03 1017 7 11 0.00 0.00
4:15 am 04:15 Clear with Mist and Fog 55 13 53 11.8 92 92 S 3 6 30.06 1018 3 5 0.00 0.00
4:35 am 04:35 Clear 55 13 53 11.9 93 93 Calm 30.06 1018 7 11 0.00 0.00
4:55 am 04:55 Clear with Mist and Fog 56 13.6 55 12.5 93 93 Calm 30.06 1018 5 8 0.00 0.00
5:15 am 05:15 Clear with Mist and Fog 56 13.2 54 12.1 93 93 Calm 30.06 1018 3 5 0.00 0.00
5:35 am 05:35 Clear with Mist and Fog 55 12.9 53 11.9 94 94 Calm 30.06 1018 4 6 0.00 0.00
5:55 am 05:55 Clear with Mist and Fog 55 13 53 11.9 93 93 Calm 30.06 1018 5 8 0.00 0.00
6:15 am 06:15 Clear with Mist and Fog 55 13 54 12 94 94 E 3 6 30.06 1018 4 6 0.00 0.00
6:35 am 06:35 Clear with Mist and Fog 55 13 54 12 94 94 Calm 30.06 1018 4 6 0.00 0.00
6:55 am 06:55 Clear with Mist and Fog 55 12.7 53 11.6 93 93 SE 5 7 30.06 1018 3 5 0.00 0.00
7:15 am 07:15 Sunny with Mist and Fog 57 14.1 56 13.1 94 94 SE 3 6 30.03 1017 3 4 0.00 0.00
7:35 am 07:35 Sunny with Mist and Fog 58 14.7 56 13.2 91 91 Calm 30.03 1017 5 8 0.00 0.00
7:55 am 07:55 Sunny with Mist and Fog 58 14.6 56 13.5 93 93 Calm 30.03 1017 3 5 0.00 0.00
8:15 am 08:15 Sunny with Mist and Fog 60 15.3 58 14.3 94 94 Calm 30.03 1017 3 5 0.00 0.00
8:35 am 08:35 Sunny with Mist and Fog 62 16.5 60 15.4 93 93 Calm 30.03 1017 3 5 0.00 0.00
8:55 am 08:55 Mostly Cloudy with Mist and Fog 65 18.4 62 16.6 89 89 Calm 30.00 1016 2 2 0.00 0.00
9:15 am 09:15 Mostly Cloudy with Haze 70 21.2 64 17.5 80 80 SE 3 6 29.94 1014 1 2 0.00 0.00
9:35 am 09:35 Hazy 73 22.8 65 18.5 77 77 S 6 9 29.94 1014 4 6 0.00 0.00
9:55 am 09:55 Sunny 75 24.1 66 18.9 73 73 SW 5 7 29.94 1014 10 16 0.00 0.00
10:15 am 10:15 Sunny 77 24.8 66 18.7 69 69 SSW 9 15 29.91 1013 10 16 0.00 0.00
10:35 am 10:35 Sunny 79 26.1 65 18.1 61 61 SSW 6 9 29.91 1013 10 16 0.00 0.00
10:55 am 10:55 Sunny 81 27 64 17.9 58 58 SSW 8 13 29.91 1013 10 16 0.00 0.00
11:15 am 11:15 Sunny 82 27.9 64 18 55 55 SSW 9 15 29.88 1012 10 16 0.00 0.00
11:35 am 11:35 Sunny 83 28.5 65 18.4 54 54 SSW 8 13 29.88 1012 10 16 0.00 0.00
11:55 am 11:55 Sunny 85 29.5 64 17.8 49 49 SSW 12 19 29.88 1012 10 16 0.00 0.00
12:15 pm 12:15 Sunny 86 30.1 65 18.1 49 49 SSW 9 15 29.88 1012 10 16 0.00 0.00
12:35 pm 12:35 Sunny 88 31 63 17.3 44 44 SSW 12 19 29.85 1011 10 16 0.00 0.00
12:55 pm 12:55 Sunny 89 31.7 63 17.1 42 42 SSW 12 19 29.85 1011 10 16 0.00 0.00
1:15 pm 13:15 Sunny 90 32.2 60 15.8 37 37 SSW 17 28 29.85 1011 10 16 0.00 0.00
1:35 pm 13:35 Sunny 91 32.7 63 17.2 40 40 S 15 24 29.83 1010 10 16 0.00 0.00
1:55 pm 13:55 Sunny 91 33 63 17.3 39 39 SSW 17 28 29.83 1010 10 16 0.00 0.00
2:15 pm 14:15 Sunny 93 33.7 61 16.3 35 35 SSW 20 31 29.83 1010 10 16 0.00 0.00
2:35 pm 14:35 Sunny 94 34.2 60 15.3 32 32 SSW 15 24 29.83 1010 10 16 0.00 0.00
2:55 pm 14:55 Sunny 94 34.6 59 15.2 31 31 SSW 13 20 29.77 1008 10 16 0.00 0.00
3:15 pm 15:15 Sunny 95 34.8 58 14.2 29 29 SSW 17 28 29.77 1008 10 16 0.00 0.00
3:35 pm 15:35 Sunny 95 35.1 57 14.1 28 28 SSW 16 26 29.77 1008 10 16 0.00 0.00
3:55 pm 15:55 Sunny 95 35.1 59 14.8 30 30 SSW 15 24 29.77 1008 10 16 0.00 0.00
4:15 pm 16:15 Sunny 94 34.7 58 14.4 29 29 SSW 13 20 29.74 1007 10 16 0.00 0.00
4:35 pm 16:35 Sunny 94 34.7 59 14.9 30 30 SSW 14 22 29.74 1007 10 16 0.00 0.00
4:55 pm 16:55 Sunny 94 34.7 58 14.5 30 30 SSW 14 22 29.74 1007 10 16 0.00 0.00
5:15 pm 17:15 Sunny 94 34.5 58 14.3 30 30 SSW 14 22 29.74 1007 10 16 0.00 0.00
5:35 pm 17:35 Sunny 94 34.4 57 14.1 29 29 S 13 20 29.71 1006 10 16 0.00 0.00
5:55 pm 17:55 Sunny 93 33.9 59 15 32 32 S 10 17 29.71 1006 10 16 0.00 0.00
6:15 pm 18:15 Sunny 92 33.4 58 14.2 31 31 S 10 17 29.71 1006 10 16 0.00 0.00
6:35 pm 18:35 Sunny 90 32.2 59 14.9 35 35 S 8 13 29.74 1007 10 16 0.00 0.00
6:55 pm 18:55 Sunny 88 31.1 59 15 38 38 S 9 15 29.74 1007 10 16 0.00 0.00
7:15 pm 19:15 Sunny 86 30.2 59 14.9 39 39 S 9 15 29.74 1007 10 16 0.00 0.00
7:35 pm 19:35 Sunny 84 28.9 59 15 43 43 S 9 15 29.77 1008 10 16 0.00 0.00
7:55 pm 19:55 Sunny 81 27.4 60 15.4 48 48 SSW 9 15 29.77 1008 10 16 0.00 0.00
8:15 pm 20:15 Clear 80 26.7 60 15.5 50 50 S 7 11 29.77 1008 10 16 0.00 0.00
8:35 pm 20:35 Clear 79 26.2 59 15 50 50 SSW 8 13 29.77 1008 10 16 0.00 0.00
8:55 pm 20:55 Clear 79 25.9 59 15.1 51 51 SSW 8 13 29.80 1009 10 16 0.00 0.00
9:15 pm 21:15 Clear 78 25.7 59 15 52 52 SSW 6 9 29.80 1009 10 16 0.00 0.00
9:35 pm 21:35 Clear 77 24.8 60 15.3 56 56 SSW 5 7 29.80 1009 10 16 0.00 0.00
9:55 pm 21:55 Clear 71 21.7 62 16.5 72 72 NW 3 6 29.83 1010 10 16 0.00 0.00
10:15 pm 22:15 Clear 75 24.1 61 15.9 60 60 N 3 6 29.83 1010 10 16 0.00 0.00
10:35 pm 22:35 Clear 74 23.3 60 15.8 63 63 W 6 9 29.83 1010 10 16 0.00 0.00
10:55 pm 22:55 Clear 76 24.3 60 15.3 57 57 W 7 11 29.83 1010 10 16 0.00 0.00
11:15 pm 23:15 Clear 73 22.6 60 15.4 64 64 WNW 5 7 29.85 1011 10 16 0.00 0.00
11:35 pm 23:35 Clear 75 23.8 59 15 58 58 SW 5 7 29.83 1010 10 16 0.00 0.00
11:55 pm 23:55 Clear 69 20.7 59 15.2 71 71 NW 5 7 29.85 1011 10 16 0.00 0.00

Powered by AerisWeather